QPF
0.00 0.00 0.00 0.00 0.00 0.00 0.00 0.00 0.00 0.00 0.00 0.00 0.00 0.00 0.00 0.00 0.00 0.00 0.00 0.00 0.00 0.00 0.00 0.00 0.00 0.01 0.01 0.02 0.02 0.01 0.02 0.01 0.02 0.02 0.01 0.01 0.02 0.03 0.03 0.02 0.03 0.04 0.04 0.05
0.00 0.00 0.00 0.00 0.00 0.00 0.00 0.00 0.00 0.00 0.00 0.00 0.00 0.00 0.00 0.00 0.00 0.00 0.00 0.00 0.00 0.00 0.00 0.00 0.00 0.01 0.02 0.02 0.02 0.01 0.02 0.02 0.02 0.02 0.02 0.02 0.02 0.02 0.02 0.02 0.02 0.02 0.02 0.03
0.00 0.00 0.00 0.00 0.00 0.00 0.00 0.00 0.00 0.00 0.00 0.00 0.00 0.00 0.00 0.00 0.00 0.00 0.00 0.00 0.00 0.00 0.00 0.00 0.00 0.01 0.02 0.02 0.02 0.01 0.02 0.01 0.01 0.02 0.02 0.02 0.02 0.02 0.02 0.02 0.02 0.02 0.02 0.03
0.00 0.00 0.00 0.00 0.00 0.00 0.00 0.00 0.00 0.00 0.00 0.00 0.00 0.00 0.00 0.00 0.00 0.00 0.00 0.00 0.01 0.01 0.00 0.00 0.00 0.01 0.01 0.01 0.02 0.02 0.02 0.01 0.01 0.01 0.01 0.02 0.02 0.03 0.03 0.03 0.03 0.03 0.03 0.03
0.00 0.00 0.00 0.00 0.00 0.00 0.00 0.00 0.00 0.00 0.00 0.00 0.00 0.00 0.00 0.00 0.00 0.00 0.01 0.01 0.02 0.01 0.01 0.01 0.01 0.02 0.03 0.03 0.04 0.05 0.04 0.03 0.02 0.01 0.01 0.01 0.02 0.03 0.04 0.04 0.04 0.05 0.05 0.05
0.00 0.00 0.00 0.00 0.00 0.00 0.00 0.00 0.00 0.00 0.00 0.00 0.00 0.00 0.00 0.00 0.00 0.00 0.00 0.01 0.02 0.01 0.01 0.01 0.02 0.03 0.04 0.07 0.09 0.09 0.08 0.06 0.04 0.02 0.02 0.02 0.04 0.04 0.04 0.04 0.05 0.06 0.06 0.07
0.00 0.00 0.00 0.00 0.00 0.00 0.00 0.00 0.00 0.00 0.00 0.00 0.00 0.00 0.00 0.00 0.00 0.01 0.01 0.02 0.02 0.02 0.01 0.02 0.02 0.03 0.05 0.07 0.08 0.07 0.06 0.05 0.04 0.03 0.02 0.02 0.02 0.03 0.03 0.04 0.04 0.04 0.03 0.03
0.00 0.00 0.00 0.00 0.00 0.00 0.00 0.00 0.00 0.00 0.00 0.00 0.00 0.00 0.00 0.00 0.01 0.01 0.02 0.02 0.02 0.01 0.01 0.02 0.02 0.02 0.03 0.03 0.04 0.04 0.04 0.04 0.04 0.03 0.03 0.02 0.03 0.02 0.02 0.02 0.03 0.03 0.03 0.04
0.00 0.00 0.00 0.00 0.00 0.00 0.00 0.00 0.00 0.00 0.00 0.00 0.00 0.00 0.00 0.00 0.01 0.01 0.02 0.02 0.02 0.02 0.02 0.02 0.01 0.02 0.03 0.03 0.03 0.03 0.03 0.03 0.03 0.04 0.03 0.03 0.03 0.04 0.03 0.02 0.02 0.02 0.03 0.02
0.00 0.00 0.00 0.00 0.01 0.01 0.00 0.00 0.00 0.00 0.00 0.00 0.00 0.00 0.00 0.01 0.01 0.02 0.02 0.02 0.02 0.02 0.01 0.01 0.01 0.01 0.02 0.02 0.02 0.03 0.04 0.04 0.04 0.04 0.04 0.05 0.05 0.06 0.06 0.04 0.04 0.04 0.03 0.02
0.01 0.01 0.01 0.01 0.01 0.00 0.01 0.00 0.01 0.00 0.00 0.01 0.01 0.01 0.01 0.01 0.02 0.02 0.02 0.02 0.02 0.02 0.01 0.01 0.01 0.01 0.00 0.01 0.01 0.02 0.03 0.04 0.06 0.07 0.08 0.09 0.09 0.09 0.07 0.05 0.04 0.04 0.03 0.03
0.01 0.01 0.02 0.01 0.00 0.01 0.01 0.01 0.01 0.01 0.01 0.01 0.01 0.01 0.01 0.02 0.02 0.02 0.02 0.02 0.02 0.02 0.01 0.01 0.01 0.01 0.01 0.01 0.02 0.02 0.01 0.01 0.04 0.05 0.05 0.04 0.05 0.06 0.07 0.04 0.04 0.04 0.04 0.04
0.01 0.01 0.01 0.01 0.01 0.02 0.02 0.02 0.01 0.01 0.02 0.02 0.03 0.03 0.03 0.03 0.03 0.02 0.02 0.02 0.02 0.02 0.01 0.01 0.01 0.02 0.02 0.02 0.02 0.01 0.01 0.01 0.02 0.03 0.03 0.02 0.02 0.02 0.03 0.03 0.03 0.03 0.02 0.02
0.01 0.01 0.01 0.01 0.01 0.02 0.02 0.02 0.01 0.01 0.02 0.03 0.03 0.04 0.04 0.04 0.03 0.03 0.02 0.02 0.02 0.02 0.02 0.02 0.01 0.01 0.01 0.02 0.02 0.01 0.00 0.01 0.01 0.02 0.02 0.02 0.01 0.01 0.01 0.02 0.02 0.02 0.02 0.01
0.01 0.01 0.01 0.02 0.02 0.01 0.02 0.02 0.02 0.02 0.01 0.02 0.04 0.04 0.04 0.04 0.04 0.03 0.03 0.02 0.02 0.02 0.02 0.01 0.01 0.01 0.01 0.01 0.01 0.01 0.01 0.00 0.01 0.01 0.01 0.01 0.01 0.01 0.02 0.01 0.01 0.01 0.01 0.01
0.01 0.02 0.02 0.02 0.02 0.02 0.02 0.03 0.03 0.03 0.02 0.02 0.03 0.04 0.04 0.03 0.03 0.03 0.03 0.03 0.02 0.01 0.01 0.01 0.01 0.01 0.01 0.01 0.01 0.01 0.01 0.01 0.01 0.01 0.01 0.02 0.02 0.02 0.02 0.01 0.01 0.00 0.00 0.00
0.02 0.03 0.03 0.02 0.03 0.03 0.02 0.02 0.03 0.03 0.03 0.02 0.02 0.02 0.03 0.03 0.03 0.03 0.02 0.02 0.01 0.01 0.01 0.00 0.01 0.01 0.01 0.01 0.01 0.01 0.01 0.01 0.01 0.01 0.01 0.01 0.01 0.01 0.01 0.01 0.01 0.00 0.00 0.00
0.02 0.02 0.03 0.03 0.03 0.03 0.02 0.03 0.02 0.01 0.02 0.01 0.01 0.01 0.01 0.02 0.02 0.02 0.02 0.02 0.01 0.01 0.00 0.01 0.01 0.01 0.01 0.01 0.01 0.01 0.01 0.01 0.00 0.00 0.01 0.01 0.01 0.01 0.00 0.01 0.01 0.00 0.00 0.00
0.02 0.02 0.03 0.03 0.03 0.03 0.03 0.03 0.02 0.01 0.01 0.01 0.01 0.01 0.01 0.02 0.03 0.03 0.02 0.02 0.01 0.01 0.00 0.00 0.01 0.00 0.00 0.01 0.01 0.01 0.02 0.01 0.01 0.01 0.01 0.01 0.01 0.01 0.01 0.01 0.01 0.01 0.01 0.01
0.02 0.04 0.05 0.04 0.03 0.03 0.04 0.03 0.02 0.01 0.01 0.01 0.01 0.01 0.02 0.02 0.02 0.04 0.05 0.03 0.02 0.01 0.01 0.00 0.00 0.00 0.00 0.00 0.01 0.01 0.02 0.02 0.01 0.01 0.01 0.01 0.01 0.01 0.01 0.01 0.01 0.01 0.00 0.00
0.03 0.06 0.08 0.06 0.04 0.04 0.04 0.03 0.02 0.02 0.01 0.01 0.01 0.02 0.02 0.02 0.02 0.03 0.04 0.04 0.03 0.02 0.01 0.01 0.00 0.00 0.00 0.00 0.00 0.00 0.01 0.01 0.01 0.01 0.01 0.00 0.00 0.01 0.01 0.01 0.01 0.01 0.01 0.00
0.03 0.05 0.07 0.06 0.05 0.04 0.04 0.03 0.02 0.02 0.01 0.01 0.02 0.03 0.02 0.02 0.02 0.02 0.02 0.02 0.02 0.01 0.01 0.00 0.00 0.01 0.01 0.01 0.00 0.00 0.00 0.00 0.01 0.01 0.00 0.00 0.00 0.00 0.00 0.00 0.00 0.00 0.00 0.00
0.03 0.04 0.04 0.05 0.05 0.04 0.04 0.03 0.03 0.03 0.03 0.04 0.04 0.03 0.03 0.03 0.03 0.02 0.02 0.01 0.01 0.01 0.01 0.01 0.01 0.01 0.00 0.01 0.00 0.00 0.00 0.00 0.01 0.00 0.00 0.00 0.00 0.00 0.00 0.00 0.00 0.00 0.00 0.00
0.04 0.04 0.04 0.05 0.05 0.05 0.05 0.05 0.05 0.05 0.04 0.06 0.07 0.06 0.04 0.04 0.04 0.04 0.02 0.01 0.01 0.01 0.01 0.01 0.00 0.00 0.00 0.00 0.00 0.00 0.00 0.00 0.00 0.00 0.00 0.00 0.00 0.00 0.00 0.00 0.00 0.00 0.00 0.00
0.04 0.04 0.05 0.05 0.05 0.05 0.06 0.06 0.06 0.05 0.03 0.04 0.06 0.06 0.06 0.05 0.05 0.04 0.02 0.01 0.01 0.00 0.00 0.00 0.00 0.00 0.00 0.00 0.00 0.00 0.00 0.00 0.00 0.00 0.00 0.00 0.00 0.00 0.00 0.00 0.00 0.00 0.00 0.00
0.03 0.04 0.04 0.05 0.05 0.05 0.06 0.06 0.06 0.06 0.04 0.03 0.04 0.04 0.04 0.04 0.04 0.03 0.02 0.01 0.00 0.00 0.00 0.00 0.00 0.00 0.01 0.01 0.01 0.00 0.00 0.00 0.00 0.00 0.00 0.00 0.00 0.00 0.00 0.00 0.00 0.00 0.00 0.00
0.03 0.03 0.03 0.03 0.04 0.05 0.06 0.06 0.05 0.06 0.06 0.05 0.04 0.04 0.03 0.02 0.02 0.01 0.01 0.01 0.00 0.00 0.00 0.00 0.01 0.01 0.01 0.01 0.01 0.00 0.00 0.00 0.00 0.00 0.00 0.00 0.00 0.00 0.00 0.00 0.00 0.00 0.00 0.00
MSLP
1012.15 1012.13 1012.13 1012.16 1012.22 1012.28 1012.30 1012.25 1012.09 1011.80 1011.38 1010.86 1010.29 1009.75 1009.30 1009.01 1008.93 1009.08 1009.44 1010.00 1010.69 1011.45 1012.23 1012.97 1013.62 1014.17 1014.61 1014.95 1015.21 1015.42 1015.60 1015.77 1015.94 1016.13 1016.35 1016.58 1016.84 1017.12 1017.42 1017.74 1018.07 1018.41 1018.76 1019.11
1012.24 1012.18 1012.10 1012.04 1011.98 1011.94 1011.87 1011.76 1011.58 1011.30 1010.93 1010.50 1010.03 1009.58 1009.21 1008.98 1008.92 1009.06 1009.40 1009.91 1010.55 1011.27 1012.01 1012.74 1013.40 1013.97 1014.44 1014.82 1015.13 1015.38 1015.60 1015.81 1016.03 1016.27 1016.54 1016.84 1017.16 1017.51 1017.88 1018.25 1018.63 1019.01 1019.38 1019.74
1012.34 1012.26 1012.15 1012.03 1011.91 1011.79 1011.67 1011.52 1011.32 1011.06 1010.74 1010.36 1009.95 1009.57 1009.24 1009.03 1008.96 1009.07 1009.35 1009.80 1010.38 1011.06 1011.77 1012.49 1013.16 1013.76 1014.28 1014.71 1015.07 1015.37 1015.63 1015.89 1016.16 1016.46 1016.79 1017.15 1017.55 1017.97 1018.41 1018.84 1019.27 1019.68 1020.06 1020.42
1012.45 1012.37 1012.25 1012.11 1011.97 1011.82 1011.68 1011.51 1011.32 1011.07 1010.78 1010.44 1010.07 1009.71 1009.40 1009.17 1009.07 1009.13 1009.35 1009.73 1010.25 1010.88 1011.57 1012.28 1012.96 1013.60 1014.16 1014.64 1015.05 1015.40 1015.71 1016.02 1016.33 1016.68 1017.07 1017.50 1017.97 1018.47 1018.97 1019.46 1019.93 1020.36 1020.75 1021.11
1012.55 1012.49 1012.39 1012.26 1012.12 1011.98 1011.84 1011.68 1011.50 1011.28 1011.01 1010.69 1010.34 1009.99 1009.67 1009.41 1009.27 1009.27 1009.42 1009.74 1010.21 1010.79 1011.45 1012.16 1012.86 1013.52 1014.12 1014.65 1015.10 1015.49 1015.85 1016.19 1016.55 1016.94 1017.38 1017.87 1018.40 1018.96 1019.52 1020.06 1020.57 1021.02 1021.41 1021.75
1012.65 1012.60 1012.52 1012.42 1012.31 1012.19 1012.08 1011.95 1011.79 1011.60 1011.35 1011.05 1010.72 1010.36 1010.03 1009.75 1009.57 1009.51 1009.61 1009.87 1010.29 1010.84 1011.48 1012.18 1012.89 1013.58 1014.21 1014.76 1015.25 1015.67 1016.06 1016.43 1016.82 1017.24 1017.72 1018.25 1018.83 1019.43 1020.04 1020.62 1021.16 1021.62 1022.01 1022.33
1012.73 1012.70 1012.63 1012.56 1012.48 1012.40 1012.32 1012.23 1012.10 1011.94 1011.72 1011.45 1011.13 1010.78 1010.45 1010.15 1009.94 1009.85 1009.91 1010.13 1010.51 1011.03 1011.66 1012.35 1013.06 1013.76 1014.41 1014.99 1015.50 1015.94 1016.35 1016.74 1017.14 1017.58 1018.08 1018.64 1019.25 1019.88 1020.52 1021.13 1021.68 1022.16 1022.54 1022.84
1012.80 1012.76 1012.71 1012.66 1012.61 1012.57 1012.52 1012.46 1012.37 1012.24 1012.06 1011.82 1011.52 1011.20 1010.87 1010.58 1010.36 1010.25 1010.29 1010.48 1010.84 1011.34 1011.95 1012.63 1013.35 1014.05 1014.71 1015.31 1015.83 1016.29 1016.70 1017.10 1017.51 1017.96 1018.46 1019.03 1019.65 1020.30 1020.95 1021.58 1022.14 1022.63 1023.01 1023.31
1012.87 1012.82 1012.77 1012.73 1012.69 1012.67 1012.65 1012.62 1012.57 1012.47 1012.32 1012.11 1011.85 1011.55 1011.25 1010.97 1010.77 1010.66 1010.69 1010.88 1011.22 1011.70 1012.30 1012.97 1013.68 1014.39 1015.05 1015.66 1016.19 1016.66 1017.09 1017.49 1017.91 1018.36 1018.86 1019.43 1020.04 1020.69 1021.35 1021.98 1022.55 1023.04 1023.44 1023.73
1012.96 1012.88 1012.82 1012.78 1012.75 1012.73 1012.72 1012.71 1012.67 1012.59 1012.47 1012.29 1012.06 1011.80 1011.53 1011.29 1011.10 1011.01 1011.05 1011.23 1011.56 1012.03 1012.61 1013.27 1013.98 1014.68 1015.36 1015.98 1016.53 1017.02 1017.46 1017.88 1018.30 1018.76 1019.26 1019.81 1020.42 1021.06 1021.70 1022.33 1022.90 1023.40 1023.81 1024.12
1013.07 1012.97 1012.90 1012.84 1012.80 1012.77 1012.75 1012.73 1012.68 1012.61 1012.50 1012.34 1012.14 1011.91 1011.68 1011.47 1011.31 1011.24 1011.29 1011.47 1011.79 1012.24 1012.81 1013.46 1014.16 1014.87 1015.56 1016.20 1016.78 1017.30 1017.77 1018.22 1018.66 1019.13 1019.63 1020.17 1020.76 1021.38 1022.01 1022.63 1023.20 1023.70 1024.12 1024.46
1013.22 1013.11 1013.02 1012.93 1012.86 1012.80 1012.75 1012.69 1012.62 1012.53 1012.41 1012.26 1012.08 1011.87 1011.67 1011.49 1011.36 1011.31 1011.37 1011.55 1011.86 1012.31 1012.86 1013.50 1014.19 1014.91 1015.61 1016.28 1016.90 1017.47 1017.99 1018.48 1018.96 1019.44 1019.95 1020.50 1021.07 1021.67 1022.28 1022.87 1023.43 1023.94 1024.37 1024.72
1013.42 1013.30 1013.18 1013.06 1012.95 1012.84 1012.73 1012.61 1012.50 1012.37 1012.22 1012.06 1011.88 1011.70 1011.52 1011.37 1011.26 1011.23 1011.30 1011.49 1011.79 1012.22 1012.76 1013.39 1014.08 1014.80 1015.53 1016.24 1016.91 1017.53 1018.11 1018.66 1019.18 1019.70 1020.22 1020.76 1021.32 1021.90 1022.48 1023.05 1023.59 1024.09 1024.53 1024.89
1013.65 1013.52 1013.37 1013.21 1013.03 1012.85 1012.67 1012.49 1012.31 1012.12 1011.94 1011.76 1011.58 1011.41 1011.26 1011.13 1011.06 1011.06 1011.14 1011.33 1011.64 1012.06 1012.58 1013.20 1013.89 1014.62 1015.37 1016.11 1016.83 1017.51 1018.15 1018.75 1019.32 1019.87 1020.42 1020.96 1021.51 1022.06 1022.62 1023.16 1023.67 1024.15 1024.58 1024.95
1013.86 1013.72 1013.54 1013.32 1013.08 1012.82 1012.56 1012.30 1012.05 1011.81 1011.59 1011.40 1011.22 1011.07 1010.95 1010.86 1010.83 1010.86 1010.97 1011.18 1011.49 1011.90 1012.42 1013.03 1013.71 1014.44 1015.20 1015.98 1016.73 1017.46 1018.15 1018.80 1019.41 1019.99 1020.55 1021.09 1021.63 1022.15 1022.67 1023.18 1023.67 1024.12 1024.53 1024.89
1014.03 1013.86 1013.63 1013.36 1013.05 1012.71 1012.37 1012.03 1011.72 1011.45 1011.20 1011.01 1010.85 1010.73 1010.66 1010.63 1010.65 1010.73 1010.88 1011.11 1011.44 1011.85 1012.36 1012.96 1013.63 1014.35 1015.12 1015.90 1016.67 1017.43 1018.15 1018.82 1019.46 1020.06 1020.62 1021.15 1021.67 1022.17 1022.65 1023.12 1023.57 1023.99 1024.38 1024.73
1014.09 1013.89 1013.61 1013.28 1012.90 1012.49 1012.09 1011.70 1011.35 1011.05 1010.81 1010.63 1010.52 1010.46 1010.45 1010.50 1010.59 1010.74 1010.94 1011.22 1011.56 1011.99 1012.49 1013.07 1013.72 1014.42 1015.16 1015.93 1016.70 1017.44 1018.17 1018.85 1019.48 1020.08 1020.63 1021.14 1021.63 1022.10 1022.55 1022.98 1023.40 1023.79 1024.16 1024.50
1014.01 1013.76 1013.44 1013.05 1012.62 1012.17 1011.72 1011.31 1010.95 1010.66 1010.46 1010.33 1010.28 1010.30 1010.38 1010.52 1010.70 1010.92 1011.20 1011.51 1011.89 1012.32 1012.82 1013.38 1013.99 1014.66 1015.36 1016.09 1016.81 1017.53 1018.22 1018.87 1019.48 1020.05 1020.57 1021.06 1021.52 1021.95 1022.37 1022.77 1023.16 1023.53 1023.88 1024.21
1013.77 1013.48 1013.11 1012.68 1012.22 1011.75 1011.30 1010.90 1010.57 1010.33 1010.19 1010.14 1010.18 1010.30 1010.48 1010.71 1010.98 1011.29 1011.62 1011.99 1012.39 1012.83 1013.32 1013.85 1014.42 1015.04 1015.68 1016.34 1017.00 1017.66 1018.29 1018.89 1019.45 1019.97 1020.45 1020.90 1021.32 1021.73 1022.12 1022.50 1022.87 1023.23 1023.57 1023.90
1013.37 1013.04 1012.65 1012.21 1011.74 1011.29 1010.87 1010.53 1010.26 1010.10 1010.04 1010.09 1010.23 1010.45 1010.73 1011.05 1011.40 1011.78 1012.17 1012.57 1012.99 1013.43 1013.90 1014.40 1014.93 1015.48 1016.05 1016.64 1017.22 1017.79 1018.35 1018.88 1019.37 1019.83 1020.27 1020.68 1021.07 1021.44 1021.82 1022.18 1022.55 1022.91 1023.26 1023.59
1012.84 1012.50 1012.10 1011.67 1011.24 1010.84 1010.50 1010.24 1010.07 1010.01 1010.05 1010.20 1010.43 1010.74 1011.10 1011.49 1011.91 1012.33 1012.75 1013.17 1013.60 1014.03 1014.47 1014.93 1015.41 1015.90 1016.40 1016.91 1017.41 1017.91 1018.38 1018.83 1019.26 1019.66 1020.04 1020.41 1020.77 1021.13 1021.49 1021.86 1022.23 1022.60 1022.96 1023.32
1012.24 1011.89 1011.52 1011.14 1010.78 1010.47 1010.22 1010.07 1010.02 1010.07 1010.22 1010.46 1010.78 1011.16 1011.57 1012.00 1012.44 1012.87 1013.30 1013.71 1014.13 1014.53 1014.95 1015.37 1015.80 1016.23 1016.67 1017.12 1017.55 1017.97 1018.37 1018.76 1019.12 1019.47 1019.81 1020.14 1020.48 1020.83 1021.19 1021.56 1021.94 1022.33 1022.71 1023.08
1011.62 1011.29 1010.97 1010.66 1010.39 1010.19 1010.07 1010.05 1010.12 1010.29 1010.54 1010.86 1011.24 1011.66 1012.09 1012.53 1012.96 1013.37 1013.77 1014.16 1014.54 1014.91 1015.29 1015.67 1016.06 1016.45 1016.85 1017.24 1017.62 1017.99 1018.34 1018.67 1018.98 1019.29 1019.60 1019.90 1020.23 1020.57 1020.93 1021.31 1021.70 1022.10 1022.50 1022.88
1011.03 1010.75 1010.49 1010.28 1010.12 1010.05 1010.07 1010.18 1010.37 1010.65 1010.99 1011.38 1011.80 1012.23 1012.65 1013.06 1013.45 1013.82 1014.17 1014.50 1014.83 1015.16 1015.50 1015.85 1016.21 1016.57 1016.94 1017.31 1017.65 1017.99 1018.30 1018.60 1018.89 1019.16 1019.44 1019.74 1020.05 1020.38 1020.75 1021.13 1021.53 1021.94 1022.34 1022.72
1010.54 1010.31 1010.13 1010.02 1009.99 1010.05 1010.20 1010.44 1010.75 1011.13 1011.55 1011.98 1012.42 1012.84 1013.24 1013.60 1013.93 1014.23 1014.51 1014.78 1015.05 1015.33 1015.63 1015.96 1016.29 1016.64 1016.99 1017.34 1017.68 1018.00 1018.30 1018.58 1018.84 1019.11 1019.37 1019.65 1019.95 1020.28 1020.64 1021.02 1021.42 1021.82 1022.21 1022.58
1010.18 1010.01 1009.91 1009.90 1009.98 1010.17 1010.45 1010.81 1011.23 1011.70 1012.18 1012.65 1013.09 1013.49 1013.85 1014.15 1014.41 1014.64 1014.85 1015.05 1015.26 1015.50 1015.76 1016.05 1016.37 1016.71 1017.06 1017.40 1017.74 1018.05 1018.34 1018.61 1018.87 1019.12 1019.37 1019.64 1019.93 1020.25 1020.60 1020.97 1021.35 1021.73 1022.11 1022.45
1009.99 1009.87 1009.84 1009.92 1010.11 1010.41 1010.80 1011.27 1011.78 1012.32 1012.85 1013.35 1013.79 1014.18 1014.49 1014.74 1014.94 1015.10 1015.24 1015.38 1015.53 1015.72 1015.95 1016.21 1016.51 1016.83 1017.17 1017.51 1017.84 1018.15 1018.43 1018.70 1018.94 1019.18 1019.42 1019.68 1019.95 1020.25 1020.58 1020.93 1021.29 1021.65 1021.99 1022.30
Thickness
5775 5783 5785 5783 5783 5784 5783 5789 5786 5793 5797 5809 5815 5815 5813 5812 5809 5805 5801 5799 5795 5792 5787 5782 5778 5773 5770 5766 5762 5759 5754 5750 5746 5743 5741 5739 5737 5735 5733 5731 5729 5727 5726 5724
5759 5772 5774 5774 5781 5783 5783 5789 5791 5795 5799 5815 5816 5814 5809 5807 5805 5801 5798 5796 5793 5788 5783 5779 5774 5770 5766 5762 5758 5754 5750 5747 5744 5741 5738 5735 5733 5730 5728 5726 5724 5723 5720 5718
5751 5763 5760 5756 5774 5779 5781 5790 5791 5788 5799 5807 5805 5803 5801 5801 5801 5799 5796 5793 5789 5785 5780 5776 5773 5769 5763 5759 5754 5749 5745 5742 5739 5736 5733 5731 5729 5726 5723 5721 5719 5716 5714 5712
5750 5743 5730 5765 5787 5787 5784 5788 5795 5796 5800 5801 5800 5800 5800 5800 5798 5794 5792 5789 5785 5782 5778 5774 5771 5766 5761 5755 5749 5744 5740 5736 5733 5731 5728 5725 5723 5720 5717 5715 5712 5709 5707 5704
5742 5736 5744 5759 5773 5778 5775 5777 5791 5791 5792 5795 5796 5794 5791 5793 5794 5791 5788 5785 5781 5779 5775 5770 5765 5760 5755 5749 5744 5738 5733 5730 5727 5724 5721 5718 5715 5712 5709 5707 5704 5702 5700 5697
5733 5730 5731 5753 5771 5777 5772 5764 5783 5786 5784 5786 5786 5783 5783 5785 5785 5783 5781 5778 5774 5772 5768 5762 5758 5754 5748 5742 5736 5731 5726 5722 5719 5716 5713 5710 5706 5704 5702 5700 5697 5694 5691 5688
5725 5727 5745 5754 5764 5765 5749 5756 5772 5777 5778 5780 5779 5781 5779 5778 5775 5773 5771 5768 5765 5762 5758 5753 5750 5746 5739 5734 5728 5724 5720 5715 5711 5708 5705 5702 5699 5696 5694 5691 5688 5685 5681 5678
5720 5719 5729 5745 5755 5751 5750 5758 5764 5767 5771 5771 5770 5770 5769 5767 5764 5762 5760 5758 5755 5752 5747 5744 5741 5737 5730 5724 5720 5716 5711 5706 5702 5699 5697 5694 5690 5688 5685 5683 5680 5676 5672 5668
5720 5723 5727 5738 5740 5743 5747 5749 5754 5759 5762 5762 5760 5758 5757 5755 5753 5751 5750 5748 5745 5741 5737 5734 5731 5727 5720 5715 5711 5707 5702 5697 5693 5690 5686 5684 5682 5679 5677 5674 5672 5669 5665 5660
5707 5717 5722 5727 5732 5736 5741 5743 5748 5751 5753 5754 5751 5749 5746 5744 5742 5741 5740 5737 5735 5731 5727 5722 5719 5716 5711 5706 5703 5698 5692 5687 5684 5680 5677 5673 5671 5670 5667 5663 5661 5658 5655 5651
5697 5705 5711 5715 5719 5725 5730 5736 5739 5742 5744 5744 5742 5739 5736 5733 5731 5730 5728 5727 5725 5721 5716 5711 5707 5704 5700 5697 5694 5689 5684 5679 5675 5671 5667 5661 5656 5652 5650 5645 5645 5645 5643 5640
5692 5698 5702 5703 5709 5716 5719 5722 5726 5728 5729 5732 5731 5728 5726 5723 5720 5718 5717 5715 5712 5709 5705 5701 5698 5694 5691 5687 5684 5680 5675 5670 5666 5662 5657 5653 5647 5639 5631 5630 5628 5627 5626 5624
5685 5690 5693 5696 5700 5706 5709 5712 5715 5717 5717 5717 5718 5717 5715 5711 5709 5708 5705 5703 5700 5698 5695 5692 5688 5684 5681 5677 5674 5671 5667 5662 5658 5653 5648 5644 5640 5635 5628 5619 5616 5613 5611 5608
5674 5677 5680 5685 5690 5695 5699 5702 5704 5705 5706 5707 5705 5705 5703 5700 5697 5696 5693 5692 5690 5687 5684 5682 5678 5673 5670 5668 5665 5662 5659 5653 5649 5645 5640 5636 5632 5628 5623 5618 5613 5605 5598 5595
5665 5670 5673 5677 5681 5684 5687 5690 5690 5690 5692 5692 5693 5692 5691 5689 5686 5683 5682 5680 5679 5676 5673 5671 5667 5663 5661 5659 5656 5654 5650 5645 5641 5636 5632 5628 5624 5620 5615 5610 5605 5599 5594 5587
5656 5661 5664 5667 5669 5672 5675 5677 5679 5679 5680 5680 5680 5679 5679 5677 5675 5673 5671 5670 5668 5664 5662 5660 5657 5654 5652 5650 5647 5644 5639 5634 5632 5629 5625 5620 5616 5612 5607 5602 5598 5594 5590 5585
5645 5649 5654 5656 5660 5663 5666 5668 5669 5669 5670 5669 5668 5668 5667 5666 5663 5660 5659 5659 5657 5654 5652 5649 5646 5644 5643 5641 5640 5636 5631 5625 5621 5621 5617 5613 5608 5604 5599 5595 5591 5587 5582 5575
5641 5645 5649 5652 5653 5654 5656 5658 5659 5660 5659 5658 5658 5657 5656 5655 5653 5650 5648 5647 5645 5642 5640 5638 5636 5634 5633 5631 5630 5628 5624 5619 5616 5612 5607 5603 5599 5595 5592 5587 5583 5579 5573 5568
5634 5637 5640 5643 5645 5647 5648 5648 5649 5649 5649 5649 5649 5648 5646 5644 5642 5640 5638 5636 5634 5631 5628 5627 5624 5625 5622 5620 5619 5617 5615 5611 5606 5602 5597 5590 5590 5587 5584 5581 5577 5573 5569 5564
5626 5629 5631 5634 5636 5638 5638 5639 5639 5639 5639 5639 5639 5637 5635 5633 5632 5630 5628 5627 5626 5624 5620 5617 5616 5615 5613 5610 5610 5609 5606 5602 5598 5593 5588 5585 5583 5579 5577 5574 5570 5566 5561 5557
5618 5621 5623 5626 5627 5628 5629 5630 5630 5629 5629 5629 5628 5627 5626 5624 5623 5622 5620 5617 5613 5613 5610 5607 5608 5606 5605 5602 5600 5601 5598 5594 5590 5586 5583 5579 5576 5573 5570 5566 5562 5557 5553 5549
5612 5614 5616 5617 5617 5618 5620 5621 5621 5620 5619 5619 5619 5618 5617 5615 5614 5612 5612 5609 5604 5601 5602 5602 5601 5597 5595 5594 5595 5593 5590 5587 5583 5580 5577 5573 5570 5566 5562 5558 5554 5550 5546 5542
5605 5606 5607 5608 5609 5610 5610 5611 5612 5612 5612 5611 5610 5610 5609 5608 5608 5605 5602 5599 5597 5593 5596 5595 5590 5586 5585 5587 5587 5585 5581 5579 5577 5574 5571 5567 5564 5559 5555 5551 5547 5543 5539 5535
5598 5599 5600 5601 5602 5602 5602 5602 5604 5604 5604 5603 5602 5601 5601 5600 5598 5598 5595 5589 5588 5587 5589 5583 5579 5578 5577 5582 5579 5577 5574 5572 5570 5568 5565 5561 5557 5553 5549 5545 5541 5537 5533 5529
5593 5593 5594 5595 5595 5595 5595 5595 5595 5595 5594 5593 5592 5592 5593 5593 5592 5590 5587 5584 5579 5580 5579 5574 5572 5571 5574 5575 5574 5571 5569 5568 5566 5563 5559 5555 5552 5548 5544 5540 5536 5532 5528 5525
5587 5588 5589 5590 5590 5590 5589 5589 5588 5587 5587 5585 5584 5585 5585 5584 5583 5581 5579 5577 5576 5574 5574 5571 5568 5567 5570 5569 5568 5565 5563 5559 5557 5555 5552 5549 5546 5542 5538 5534 5529 5527 5523 5519
5582 5582 5583 5583 5583 5584 5584 5583 5582 5581 5581 5580 5579 5579 5579 5578 5577 5575 5574 5572 5571 5570 5569 5568 5567 5566 5565 5564 5562 5559 5556 5553 5551 5548 5545 5542 5539 5536 5532 5528 5525 5522 5518 5514